Tracking 22438 objects as of 24-Feb-2021
HD Live streaming from Space Station
objects crossing your sky now

COSMOS 249 DEB

Track COSMOS 249 DEB now!
10-day predictions


NORAD ID: 14430
Int'l Code: 1968-091CV
Perigee: 749.9 km
Apogee: 1,844.6 km
Inclination: 62.2 °
Period: 111.4 minutes
Semi major axis: 7668 km
RCS: 0.0133 m2 (small)
Launch date: October 20, 1968
Source: Commonwealth of Independent States (former USSR) (CIS)
Launch site: TYURATAM MISSILE AND SPACE COMPLEX (TTMTR)

Note: This is SATELLITE DEBRIS
aabbcc
Your satellite tracking list
Your tracking list is empty




NASA's NSSDC Master Catalog

Two Line Element Set (TLE):
1 14430U 68091CV  21054.01312560  .00000699  00000-0  90118-3 0  9992
2 14430  62.2436  28.6576 0713830 105.9579 323.4143 12.92878063849332
Source of the keplerian elements: AFSPC